Regional Weather Roundup
Issued by NWS

Home | Current Version | Previous Version | Text Only | Print | Product List | Glossary Off
Versions: 1 2 3 4 5 6 7 8 9 10 11 12 13 14 15 16 17 18 19 20 21 22 23 24 25 26

000
ASUS45 KCYS 120110
RWRWY

WYOMING REGIONAL WEATHER ROUNDUP
NATIONAL WEATHER SERVICE CHEYENNE WY
600 PM MST MON DEC 11 2017

NOTE:  "FAIR" INDICATES FEW OR NO CLOUDS BELOW 12,000 FEET
WITH NO SIGNIFICANT WEATHER AND/OR OBSTRUCTIONS TO VISIBILITY.

WYZ001-120200-
YELLOWSTONE NATIONAL PARK

CITY           SKY/WX    TMP DP  RH WIND       PRES   REMARKS
LK YELLOWSTONE   N/A     20  17  88 CALM      30.55R
W YELLOWSTONE  NOT AVBL

$$
WYZ002>013-054>058-071-098>099-120200-
NORTHERN WYOMING

CITY           SKY/WX    TMP DP  RH WIND       PRES   REMARKS
JACKSON        FAIR      22  14  71 CALM      30.54R
CODY           FAIR      31  14  49 S6        30.42S WCI  25
GREYBULL       FAIR      31  16  54 E5        30.43R WCI  26
WORLAND        FAIR      29  17  61 E8        30.42S WCI  21
SHERIDAN       FAIR      26  17  68 CALM      30.41R
BUFFALO        FAIR      38  14  37 N3        30.42R
GILLETTE       FAIR      31  15  52 VRB3      30.39S
HULETT         FAIR      32  21  64 W3        30.39F
NEWCASTLE      FAIR      28  16  59 S6        30.41R WCI  22

$$
WYZ014>020-022>026-101>103-120200-
CENTRAL WYOMING

CITY           SKY/WX    TMP DP  RH WIND       PRES   REMARKS
BIG PINEY      FAIR      33   9  36 NE13      30.48R WCI  24
PINEDALE       FAIR      34  18  51 E8        30.48R WCI  27
DUBOIS         FAIR      32   9  37 S7        30.47R WCI  26
LANDER         FAIR      33  21  61 E5        30.44F WCI  29
RIVERTON       FAIR      29  19  66 CALM      30.46S
CASPER         FAIR      32  19  58 SW12      30.42F WCI  23
DOUGLAS        FAIR      32  19  58 W5        30.42R WCI  27

$$
WYZ021-027>030-104>119-120200-
SOUTHERN WYOMING

CITY           SKY/WX    TMP DP  RH WIND       PRES   REMARKS
EVANSTON       FAIR      43  13  29 S3        30.52R
FORT BRIDGER   FAIR      41  10  28 SW8       30.53R
ROCK SPRINGS   FAIR      41   3  20 NE5       30.47R
DIXON          FAIR      23  15  70 NE3       30.53R
RAWLINS        FAIR      24  16  71 CALM      30.50S
SARATOGA       FAIR      28  16  59 SW10      30.51S WCI  19
LARAMIE        FAIR      25  12  58 W9        30.44F WCI  15
CHEYENNE       FAIR      37  12  35 N7        30.40R WCI  32
TORRINGTON     FAIR      38  15  39 N10       30.39R WCI  31
PINE BLUFFS    FAIR      32   7  34 MISG      30.41R

$$




USA.gov is the U.S. government's official web portal to all federal, state and local government web resources and services.